THOR AGENA B DEB, 1948

Orbit data source: Space-Track

THOR AGENA B DEB, 1948 is space debris in LEO originally from a launch on Mon, 29 Nov 1965 UTC launched from the Air Force Western Test Range (AFWTR). Debris objects in space refer to the collection of defunct objects orbiting the Earth. Examples of debris include non-operational satellites, rocket bodies, and fragments generated from explosions, collisions, or faulty payload assembly.

Loading next visibility...
Identifier
1948, 1965-098F
Orbit
LEO
Country
Flag of USUS
Related business
Manufacturer
Unknown
Mission
Spacecraft
Bus & Motor
Unknown
Mass
~1 kg wet, ~1 kg dry
Launch date (UTC)
1965-11-29 (60 years ago)
Launch vehicle
Unknown
Launch site
Air Force Western Test Range (AFWTR)
Object type
Payload
Rocket body
Debris
Shape & HBR
Unknown
Radar Cross Section
Medium (>0.1 m² and <1 m²)

Expand to show TLE details & history
Last TLE update: 21 hours ago

TLE from 21 hours ago
0 THOR AGENA B DEB
1 01948U 65098F   25347.78187722  .00004830  00000-0  89165-3 0  9990
2 01948  79.8458 110.6928 0757445 359.7675   0.3003 13.59166121783960
Epoch: 2025-12-13T18:45Z
TLE epoch observation values (Epoch: 2025-12-13T18:45:54.191Z)
Latitude
-0.00002°
Longitude
106.51279°
Altitude
479.645 km
Speed
7.909 km/s
True Right ascension
07h 22m 46s
True Declination
0° 00' 00"
Sunlit
Object was in full shadow at epoch
Visualization orbit readout
Latitude
Unknown
Longitude
Unknown
Altitude
Unknown
Speed
Unknown
Apparent Right ascension
Unknown
Apparent Declination
Unknown
Sunlit
N/A
Visualization observer readout
Local Sidereal Time
14:28:26
Azimuth
Unknown
Elevation
Unknown
Doppler factor
Unknown
Orbital elements
Apogee altitude
1,597.595 km
Perigee altitude
474.433 km
Semi-major axis
7,414.151 km
Eccentricity
0.07574
Inclination
79.8458°
RAAN
110.6928°
Arg. of periapsis
359.7675°
True anomaly
0.35053°
Mean anomaly
0.3003°
Eccentric anomaly
0.32491°
Mean motion
3.39978 °/min
Orbital period
105.89 mins
BSTAR
0.00089165
Loading maneuver chart data...
Computing Atmospheric mass density...
Loading historical data...
Loading historical data...
Loading historical data...
Loading historical data...
Loading historical data...
Loading historical data...
Loading historical data...

Documentation

Showing up to 5 results
|